www.pogodaiklimat.ru

Погода и климат >> Архив погоды >> Россия >> Красноярский край >> Минино


ПОГОДА в Минино

  • Прогноз погоды в Минино
  • Монитор погоды в Минино

АРХИВ ПОГОДЫ в Минино

Время (UTC), дата Ветер
(напр.,м/с)
 
Видим.   Явления Облачность Т
(С)
Тd
(С)
f
(%)
Тe
(С)
Тes
(С)
Комфортность P
(гПа)
Po
(гПа)
Тmin
(С)
Tmax
(С)
R
(мм)
R24
(мм)
S
(см)
18 16.07 С 1 12 км 10/5 600 м
[Cb cap Cs]
+17.7 +15.7 88 +19 +19 1005.4 978.3
21 16.07 С 1 10 км 10/0
[Ac trans Cs]
+15.1 +14.6 97 +16 +16 1005.2 977.8
00 17.07 СВ 1 10 км 9/0
[Ac lent Ci fib]
+17.3 +15.8 91 +18 +20 1004.5 977.4 +14.3
03 17.07 ЮВ 2 10 км 9/3 600 м
[Cu med, cong Ac lent Ci sp]
+21.3 +16.2 73 +25 +29 комфорт 1003.9 977.2
06 17.07 ЮВ 2 10 км 9/8 600 м
[Cb cap Ac trans Ci sp]
+23.1 +16.6 67 +28 +30 душно 1003.5 977.0
09 17.07 ЮЗ 3 20 км {ливн. осадки} 9/8 600 м
[Cb cap Ac trans Ci sp]
+20.7 +16.1 75 +24 +26 комфорт 1005.0 978.2
12 17.07 З 3 20 км {ливн. осадки} 9/6 600 м
[Cb cap Ac trans Ci sp]
+21.8 +15.0 65 +25 +25 комфорт 1005.1 978.4 +24.2 0.0
15 17.07 Ю 1 20 км 9/0 2000 м
[Ac trans Ci sp]
+19.4 +15.1 76 +22 +22 комфорт 1005.8 978.8
18 17.07 С 1 30 км 9/0
[Ac trans Ci sp]
+18.0 +15.3 84 +19 +19 1005.6 978.6
21 17.07 штиль 0 20 км 9/0
[Ac trans Ci sp]
+16.3 +16.2 99 +16 +16 1005.4 978.2
00 18.07 ЮЗ 1 20 км 9/0 2000 м
[Ac trans Ci fib]
+18.8 +16.6 87 +21 +23 комфорт 1005.5 978.5 +15.4
03 18.07 ЮЗ 3 50 км 6/3 600 м
[Cu med, cong Ac trans Ci fib]
+23.8 +14.8 57 +27 +31 жарко 1005.2 978.6
06 18.07 Ю 3 50 км 4/3 600 м
[Cu med, cong Ci fib]
+27.0 +12.5 41 +29 +37 жарко 1004.3 978.0
09 18.07 Ю 2 50 км 8/4 600 м
[Cu med, cong Ac trans Ci fib]
+28.7 +12.8 38 +30 +34 жарко 1003.1 977.0
12 18.07 ЮВ 2 50 км 9/3 600 м
[Cu med, cong Ac trans Ci fib]
+28.0 +13.6 41 +30 +30 жарко 1003.3 977.1 +29.0
15 18.07 В 2 20 км 9/0
[Ac trans Ci fib]
+22.7 +16.0 66 +27 +27 душно 1004.0 977.4
18 18.07 штиль 0 22 км 9/0
[Ac trans Ci fib]
+19.6 +15.9 79 +21 +21 комфорт 1004.3 977.4
21 18.07 С 1 20 км 9/0
[Ac lent Ci fib]
+17.6 +16.0 90 +19 +19 1004.3 977.2
00 19.07 СЗ 1 20 км 9/3 600 м
[Cu med, cong Ac trans Ci fib]
+21.0 +16.4 75 +26 +27 душно 1004.8 978.1 +17.4
03 19.07 СЗ 3 20 км 9/8 600 м
[Cb cap Ac trans Ci fib]
+22.6 +17.5 73 +28 +29 душно 1004.8 978.2
06 19.07 З 2 10 км слаб. ливневой дождь 9/9 600 м
[]
+20.2 +19.1 93 +24 +26 комфорт 1005.3 978.5
09 19.07 С 3 20 км {ливн. осадки} 10/10 600 м
[Cb cap]
+22.7 +18.5 77 +28 +28 душно 1004.7 978.1
12 19.07 С 1 20 км {ливн. осадки} 9/8 600 м
[Cb cap Ci fib]
+22.1 +17.3 74 +27 +27 душно 1005.0 978.3 +24.7 4
15 19.07 С 2 20 км 9/8 600 м
[Cb cap Ci fib]
+20.0 +17.5 86 +24 +24 комфорт 1005.1 978.3
18 19.07 СВ 3 12 км слаб. ливневой дождь 10/10 600 м
[Cb cap]
+16.7 +16.6 99 +16 +16 1005.3 978.1
21 19.07 С 3 10 км слаб. ливневой дождь 10/10 600 м
[Cb cap]
+15.1 +14.9 99 +14 +14 1005.5 978.2
00 20.07 С 3 20 км {ливн. осадки} 9/8 600 м
[Cb cap Ci sp]
+14.2 +13.4 95 +13 +13 1006.7 979.2 +13.8 19
03 20.07 СВ 3 20 км 9/6 600 м
[Cb cap Ac trans Ci sp]
+17.9 +12.8 72 +18 +20 1005.8 978.6
06 20.07 СВ 2 4000 м дым 10/4 600 м
[Cu med, cong As trans]
+18.7 +12.0 65 +20 +23 1005.8 978.7
09 20.07 СВ 4 4000 м дым 10/4 600 м
[Cu med, cong As trans]
+16.4 +11.0 70 +16 +17 1007.2 979.9
12 20.07 С 3 4000 м дым 10/0
[As trans]
+13.7 +9.6 76 +13 +13 1008.9 981.3 +19.3
15 20.07 штиль 0 4000 м 10/0
[As trans]
+10.1 +8.3 89 +9 +9 1009.4 981.4
18 20.07 З 2 3000 м 9/0
[Ci fib]
+7.5 +7.5 100 +5 +5 1009.5 981.2
21 20.07 СЗ 1 4000 м 10/0
[Cs]
+6.5 +6.7 100 +5 +5 1008.7 980.4
00 21.07 С 1 2000 м 10/0
[Cs]
+7.2 +7.1 99 +6 +8 1009.0 980.8 +6.0
03 21.07 В 2 2000 м дым 10/0
[Cs]
+12.7 +10.2 85 +12 +20 1007.4 979.8
06 21.07 В 2 2000 м дым 10/0
[Ac trans Cs]
+16.2 +11.4 73 +16 +23 1006.6 979.3
09 21.07 В 2 4000 м гроза, ливневой дождь 10/8 600 м
[Cb cap As op]
+17.5 +12.3 72 +18 +18 1005.7 978.5
12 21.07 СЗ 2
{10}
10 км {гроза, ливн. осадки} 10/0
[Cs]
+13.5 +11.9 90 +13 +14 1007.5 979.9 +18.3 7
15 21.07 С 1 10 км 10/6 600 м
[Cb cap Cs]
+11.9 +11.9 100 +12 +12 1007.6 979.9
18 21.07 ЮЗ 1 5000 м 10/5 600 м
[Cb cap Cs]
+11.0 +11.0 100 +11 +11 1007.3 979.5
21 21.07 штиль 0 10 км 10/0
[Cs]
+9.9 +9.9 100 +9 +9 1006.8 978.9
00 22.07 З 1 4000 м дымка 9/6 600 м
[Cb cap Ac trans]
+11.4 +10.9 97 +11 +12 1006.9 979.1 +9.6
03 22.07 В 1 4000 м дымка 10/5 600 м
[Cb cap Cs]
+14.1 +11.9 87 +14 +19 1006.0 978.5
06 22.07 В 1 10 км 10/6 600 м
[Cb cap Cs]
+17.9 +13.2 74 +19 +24 1004.2 977.1
09 22.07 С 2 10 км 10/8 600 м
[Cb cap Cs]
+18.9 +14.1 74 +21 +22 комфорт 1003.4 976.4
12 22.07 штиль 0 10 км {ливн. осадки} 10/5 600 м
[Cb cap Cs]
+18.0 +15.0 83 +18 +19 1003.6 976.5 +19.2 0.0
15 22.07 ЮВ 1 2000 м дымка 10/4 600 м
[Cb cap Cs]
+14.1 +13.7 97 +14 +14 1004.1 976.6
18 22.07 штиль 0 2000 м дымка 10/4 600 м
[Cb cap Cs]
+13.5 +13.4 99 +13 +13 1002.8 975.4
21 22.07 штиль 0 2000 м дымка 10/3 600 м
[Cb cap Cs]
+13.2 +13.2 100 +13 +13 1002.3 974.8
00 23.07 З 2 2000 м дымка {ливн. осадки} 10/6 600 м
[Cb cap Ac trans Cs]
+14.7 +13.1 90 +14 +15 1003.3 976.0 +13.0 0.6
03 23.07 СЗ 1 2000 м дымка 10/4 600 м
[Cb cap Cs]
+17.2 +13.3 78 +18 +24 1003.1 976.0
06 23.07 СВ 2 10 км 9/6 600 м
[Cb cap Ci fib]
+19.5 +14.3 72 +22 +27 комфорт 1002.8 975.9
09 23.07 С 2 4000 м дым 9/5 600 м
[Cb cap Ci fib]
+20.6 +14.6 68 +24 +28 комфорт 1003.0 976.3
12 23.07 С 2 2000 м дым 10/0
[Cs]
+19.5 +15.2 76 +22 +23 комфорт 1003.3 976.5 +20.9

 

Местоположение метеостанции Минино (Красноярский край, Россия): широта 56.07 долгота 92.73 высота над уровнем моря 235 м.

В архиве по умолчанию представлена погода в Минино за последнюю неделю. Архивные данные за месяц целиком и за предыдущие месяцы, начиная с января 2011 года, Вы можете получить, выбрав интересующий диапазон дат из раскрывающегося списка и нажав кнопку "Ввод!".


*Определитесь, кто Вы:
робот инопланетянин человек

Внимание! Время в таблицах - всемирное. Для получения местного времени необходимо прибавить поправку, которая равна 7 ч.

Смотрите также архив погоды в соседних городах и на ближайших метеорологических станциях:

Погода в Красноярске (Красноярский край, Россия) (5 км)
Погода в Роевом Ручье (Красноярский край, Россия) (11 км)
Погода в Емельяново (Красноярский край, Россия) (19 км)
Погода в Шумихе (Красноярский край, Россия) (30 км)
Погода в Каче (Красноярский край, Россия) (33 км)
Погода в Погорельском Бору (Красноярский край, Россия) (36 км)
Погода в Железногорске (Красноярский край, Россия) (53 км)
Погода в Сухобузимском (Красноярский край, Россия) (59 км)
Погода в Кемчуге (Красноярский край, Россия) (66 км)
Погода в Шалинском (Красноярский край, Россия) (75 км)

Пояснения к столбцам:

Ветер - указаны скорость ветра в м/с - средняя за 10 мин, порывы в срок и между сроками (в фигурных скобках) и направление, откуда дует ветер: С - северный, СВ - северо-восточный, В - восточный, ЮВ - юго-восточный, Ю - южный, ЮЗ - юго-западный, З - западный, СЗ - северо-западный.
Видимость - горизонтальная дальность видимости в метрах или километрах. При видимости от 1 до 10 км при отсутствии осадков обычно наблюдается дымка, при ухудшении видимости до 1 км и менее - туман. В сухую погоду видимость может ухудшаться дымом, пылью или мглою.
Явления - указаны атмосферные явления, наблюдавшиеся в срок или в последний час перед сроком; фигурными скобками обозначены явления, наблюдавшиеся между сроками (за 1-3 часа до срока); квадратными скобками обозначены град или гололедные отложения с указанием их диаметра в мм.
Облачность - указаны через наклонную черту общая и нижняя облачность в баллах и высота нижней границы облаков в метрах; квадратными скобками обозначены формы облаков: Ci - перистые, Cs - перисто-слоистые, Cc - перисто-кучевые, Ac - высококучевые, As - высокослоистые, Sc - слоисто-кучевые, Ns - слоисто-дождевые, Cu - кучевые, Cb - кучево-дождевые. Подробнее классификацию облаков см. в Атласе облаков (PDF).
T - Температура воздуха - температура, измеренная на высоте 2 м над землей.
Td - Температура точки росы - температура, при понижении до которой содержащийся в воздухе водяной пар достигнет насыщения.
f - Относительная влажность воздуха - влажноcть воздуха, измеренная на высоте 2 м над землей.
Te - Эффективная температура - температура, которую ощущает одетый по сезону человек в тени. Характеристика душности погоды. При расчете учитывается влияние влажности воздуха и скорости ветра на теплоощущения человека.
Tes - Эффективная температура на солнце - температура, которую ощущает человек, с поправкой на солнечный нагрев. Характеристика знойности погоды. Зависит от высоты солнца над горизонтом, облачности и скорости ветра. Ночью, в пасмурную погоду, а также при ветре 12 м/с и более поправка равна нулю.
P - Атмосферное давление - приведенное к уровню моря атмосферное давление.
Po - Атмосферное давление - измеренное на уровне метеостанции атмосферное давление.
Tmin - Минимальная температура - минимум температуры воздуха на высоте 2 м над землей.
Tmax - Максимальная температура - максимум температуры воздуха на высоте 2 м над землей.
R - Количество осадков - Количество выпавших осадков за период времени, мм. При наведении курсора мыши на число - период времени, за который выпало указанное количество осадков.
R24 - Количество осадков - Количество выпавших осадков за 24 часа, мм.
S - Снежный покров - Высота снежного покрова, см. При наведении курсора мыши на число - состояние снежного покрова и степень покрытия местности в баллах.